Wind_Speed
18 17 16 15 14 14 13 13 12 11 12 11 10 11 10 10 10 9 9 9 10 11 13 10 9 10 8 6 4 4 3 9 10 9 11 16 16 16 15 17 15 15 15 12 8
21 20 19 18 17 16 16 15 13 13 12 13 13 11 11 11 11 13 11 11 12 15 14 15 14 11 8 8 7 3 9 8 7 9 11 15 16 14 13 13 15 19 15 11 11
22 22 21 20 19 19 18 17 17 15 14 14 14 15 15 14 14 14 13 13 15 16 17 18 17 16 16 13 8 6 11 7 8 10 15 18 13 18 12 13 15 16 14 12 10
19 21 23 22 22 21 20 19 19 18 17 16 15 16 15 16 17 17 14 12 14 15 18 21 21 21 21 19 13 7 7 7 14 13 13 17 17 15 15 12 15 16 18 16 13
21 20 20 23 23 23 22 21 21 20 20 19 18 17 15 16 19 21 15 14 15 15 18 23 24 21 24 16 12 11 9 4 10 15 20 21 17 16 16 10 15 17 17 17 9
23 23 22 21 23 24 24 23 23 22 22 20 20 19 18 21 19 19 16 20 20 18 19 20 22 25 24 17 12 11 9 6 10 13 15 23 16 16 16 17 16 18 17 19 16
17 22 24 24 22 22 25 25 23 23 22 22 21 21 23 22 19 18 19 21 20 19 19 20 18 22 21 16 12 10 11 9 12 12 12 19 20 24 19 21 19 20 20 23 18
15 16 19 24 25 23 23 25 25 24 23 22 21 24 26 17 13 18 23 22 22 20 20 19 15 19 16 11 10 13 12 8 4 10 12 18 22 28 22 19 21 21 25 23 30
17 17 16 18 23 25 24 24 25 24 23 22 22 26 22 21 22 21 24 25 26 23 22 18 17 15 12 11 17 14 9 9 9 7 8 14 22 29 21 20 26 22 26 25 29
18 18 18 17 19 24 25 24 24 24 22 22 24 25 22 22 23 19 21 27 29 26 23 15 15 12 8 21 18 13 13 7 4 4 7 14 19 25 24 21 21 26 26 25 26
19 18 18 18 17 21 24 25 24 23 24 24 23 25 21 22 20 19 21 26 27 26 22 16 18 13 27 19 15 13 14 7 5 6 8 13 17 20 21 27 22 23 23 21 19
20 19 18 19 18 18 22 25 25 24 22 22 25 24 23 22 21 22 19 19 22 26 21 18 13 28 22 20 18 13 12 7 2 6 7 10 15 16 21 26 23 15 18 19 15
20 20 19 18 19 19 19 20 23 22 22 21 24 24 25 22 22 22 18 19 21 23 19 14 31 34 27 19 14 16 13 5 2 8 5 9 16 18 23 21 17 14 10 10 11
19 19 19 19 20 19 18 20 20 20 20 20 22 23 21 23 21 21 21 20 22 21 21 26 33 32 21 13 15 17 13 6 6 5 5 11 14 19 21 20 20 12 7 7 10
17 18 19 20 20 18 17 18 19 20 17 20 22 21 22 23 25 21 21 20 21 22 25 32 35 29 26 20 18 18 12 10 7 7 11 14 20 18 22 20 18 17 14 6 6
18 18 20 21 20 18 17 18 18 17 17 15 17 19 20 19 21 24 20 21 27 27 28 39 38 33 23 18 15 17 15 21 21 12 18 21 21 21 16 20 17 15 16 10 4
18 19 19 20 18 19 17 17 16 14 12 11 12 14 16 18 18 22 24 27 29 32 33 39 39 33 27 18 5 15 19 20 10 10 11 8 11 16 18 17 11 12 15 15 8
18 20 20 18 18 18 16 17 15 21 21 20 16 15 14 13 16 18 27 30 28 29 38 39 37 30 16 12 5 4 19 21 17 15 14 15 10 8 10 11 19 16 18 18 9
18 17 15 16 18 17 17 18 26 26 24 23 20 12 8 12 14 16 19 19 21 26 31 30 25 25 15 10 8 5 14 20 21 20 18 14 12 9 13 18 21 17 15 17 10
17 17 17 18 16 18 18 29 32 30 24 23 19 16 9 8 16 17 18 20 22 23 22 27 23 17 11 10 7 6 15 17 15 19 23 16 9 15 10 13 11 7 11 13 11
18 18 20 20 22 22 25 32 28 27 27 24 20 19 19 20 19 19 17 20 23 23 29 28 20 14 12 11 6 10 17 17 17 21 24 23 18 19 18 12 8 7 6 13 16
20 19 19 19 22 27 39 38 36 33 29 26 23 21 18 17 19 15 18 20 15 21 37 27 23 19 14 12 13 12 17 17 20 23 25 25 15 14 9 5 15 7 3 5 9
21 20 18 21 25 31 45 43 33 36 29 25 22 23 25 18 14 19 16 19 18 15 25 25 23 22 15 14 12 16 18 20 22 25 21 22 17 8 6 8 11 3 15 13 12
23 21 19 24 28 35 48 44 38 37 34 33 25 22 21 18 16 20 20 19 21 17 14 14 22 23 19 16 15 19 23 26 22 27 26 13 13 15 19 14 21 14 6 9 12
25 21 19 24 29 37 41 38 43 44 40 36 29 28 28 19 20 17 23 21 17 15 18 16 16 18 18 24 26 24 24 26 29 31 28 17 20 23 23 26 20 12 11 14 18
25 23 21 26 29 37 44 46 37 31 46 34 25 32 29 25 25 24 21 19 15 19 22 19 15 15 20 23 29 30 30 29 21 29 30 25 27 29 32 29 20 18 15 20 23
25 24 25 28 31 36 40 48 36 40 26 35 23 33 28 30 28 27 24 24 22 19 21 17 19 22 24 20 22 25 27 33 31 28 29 24 23 26 29 24 30 20 18 21 21
Wind_Direction
240 240 242 241 240 237 236 236 235 230 228 225 227 224 218 213 207 186 176 181 190 187 186 201 196 197 183 180 206 247 52 35 49 52 26 43 64 49 38 30 23 39 44 29 353
240 241 240 239 238 238 237 238 239 237 233 229 226 225 222 218 210 210 207 195 181 186 178 188 196 182 168 180 176 68 48 0 358 56 43 51 61 59 50 29 8 17 33 27 23
240 239 240 241 238 236 236 235 236 236 236 234 231 230 231 228 225 235 220 212 194 190 178 183 182 182 181 180 180 125 82 37 14 48 41 53 70 55 51 32 21 17 16 24 17
245 244 240 238 238 238 237 235 234 235 234 232 232 234 234 236 235 230 228 227 213 200 188 192 186 190 193 198 200 137 99 94 52 34 44 44 40 29 38 35 20 12 9 14 6
245 246 245 243 240 237 236 235 234 233 233 233 229 230 229 237 235 235 229 222 233 230 206 196 199 200 200 210 203 151 133 127 72 39 20 26 25 19 24 19 20 8 9 7 4
247 245 244 245 243 240 239 237 236 233 231 233 230 227 227 232 232 229 223 220 225 226 227 213 215 200 214 217 231 237 147 174 81 51 30 7 17 354 4 14 25 359 353 351 12
254 249 246 244 243 242 239 238 238 237 232 229 228 225 226 231 235 229 225 224 228 222 229 221 224 215 224 231 256 179 144 124 66 58 48 3 5 3 5 355 15 18 359 345 1
262 259 251 244 242 241 239 237 235 235 234 231 226 226 228 227 240 225 220 218 222 218 224 232 226 209 232 265 196 129 119 125 132 57 41 0 343 357 352 352 12 7 3 12 3
255 259 257 251 242 239 239 237 234 232 232 230 228 229 226 216 226 217 211 207 214 212 219 231 232 230 246 238 159 133 139 114 62 57 33 346 346 348 350 8 356 4 1 2 -0
255 255 255 255 247 240 237 238 235 231 231 229 229 232 226 222 238 238 222 211 207 208 216 221 218 220 189 171 157 152 148 117 125 48 12 341 343 349 7 356 352 356 358 355 359
254 255 253 252 253 241 237 235 236 231 228 226 224 232 233 223 233 234 233 215 214 209 209 204 210 164 163 166 163 159 158 141 96 48 349 330 333 335 351 348 342 348 352 -0 2
256 252 251 250 248 248 237 232 232 231 229 230 231 223 218 223 225 231 226 224 221 211 195 204 197 153 171 170 178 161 137 152 227 335 327 311 316 339 350 348 352 359 355 352 8
253 252 247 246 247 249 247 235 233 232 229 224 233 229 218 217 223 226 222 232 221 211 188 191 172 175 184 182 174 169 138 156 267 297 262 277 310 334 336 333 358 1 355 10 37
249 248 247 245 243 247 250 235 231 231 230 223 229 224 221 219 218 219 217 220 221 200 176 174 184 186 183 186 165 145 156 166 245 292 296 294 306 310 323 320 338 332 342 24 46
246 246 248 245 243 244 245 237 225 224 226 224 224 222 221 219 217 215 215 219 206 193 184 176 176 176 182 187 181 160 163 206 255 280 263 274 289 299 302 310 313 322 327 331 23
247 245 246 241 238 237 236 231 221 219 216 218 218 220 218 221 220 217 208 203 197 185 177 189 189 188 184 192 197 179 189 213 222 249 252 261 282 290 281 291 317 306 303 289 298
247 244 241 238 238 236 229 218 212 206 183 185 195 205 207 210 221 220 202 200 200 187 182 195 192 187 197 209 195 198 206 224 229 248 243 249 260 302 272 284 292 276 274 277 283
247 243 236 230 227 227 225 205 185 162 161 167 165 182 182 200 197 208 206 198 198 185 186 196 196 197 205 154 111 208 226 231 236 225 240 241 323 294 283 298 275 266 255 258 263
246 229 218 217 223 221 217 187 166 168 153 155 151 137 152 180 190 198 205 199 191 191 199 204 205 195 167 188 200 240 217 209 219 233 248 274 306 311 330 317 309 185 231 243 262
229 215 210 219 220 214 205 167 170 162 156 139 136 131 122 160 190 184 185 189 184 184 199 172 171 175 198 186 180 168 198 203 226 254 258 281 295 328 343 311 293 251 245 247 260
222 218 222 224 218 209 183 170 178 177 157 145 144 143 145 148 157 172 169 171 177 171 175 170 170 176 181 168 185 192 184 211 231 247 259 273 273 318 319 281 256 159 265 262 270
222 226 227 223 214 196 176 177 178 179 165 151 138 152 154 146 140 156 162 161 166 170 171 177 171 171 178 179 211 199 203 214 240 255 267 277 300 322 253 286 185 170 333 189 291
221 228 221 208 200 194 181 179 176 172 178 165 160 164 171 177 205 147 131 159 133 176 190 205 195 183 177 188 235 234 223 242 264 269 266 271 283 308 316 169 161 247 314 283 272
218 224 217 204 199 193 189 190 173 160 171 169 170 169 176 170 205 185 148 157 160 173 178 209 224 208 209 210 226 240 251 255 261 268 275 281 299 292 309 254 278 301 287 306 307
216 219 220 206 200 195 198 195 204 157 175 172 170 171 177 181 206 217 167 165 174 191 191 220 227 231 240 235 230 242 256 269 275 263 273 272 284 289 303 313 309 295 309 319 304
218 215 209 207 202 201 200 202 221 181 180 169 170 189 174 187 208 208 195 186 196 208 209 216 224 242 257 258 246 250 257 262 257 265 272 273 280 286 291 301 294 291 300 316 325
213 213 207 204 202 204 198 204 216 205 160 169 176 201 185 195 196 206 197 198 212 209 212 211 229 242 261 269 254 253 253 261 253 268 283 284 285 288 287 291 300 295 300 316 331
Height
5898 5899 5900 5901 5902 5903 5904 5905 5906 5907 5909 5910 5911 5912 5913 5915 5916 5917 5917 5918 5919 5919 5919 5921 5922 5922 5921 5922 5924 5924 5924 5922 5922 5922 5919 5920 5917 5917 5915 5913 5913 5914 5913 5911 5907
5894 5895 5897 5898 5899 5900 5902 5903 5904 5905 5906 5907 5909 5911 5912 5914 5915 5915 5917 5917 5918 5918 5920 5922 5922 5922 5923 5925 5924 5924 5922 5924 5924 5925 5924 5922 5921 5919 5919 5917 5913 5913 5916 5914 5909
5891 5892 5893 5894 5896 5897 5899 5900 5901 5903 5904 5905 5907 5909 5911 5912 5913 5913 5915 5915 5915 5916 5919 5921 5921 5922 5924 5923 5924 5924 5925 5925 5925 5925 5926 5924 5925 5923 5922 5920 5916 5915 5916 5914 5911
5887 5888 5889 5890 5892 5893 5895 5897 5898 5900 5901 5903 5905 5906 5908 5910 5912 5911 5913 5913 5914 5915 5917 5919 5920 5921 5922 5922 5923 5924 5925 5926 5927 5926 5926 5926 5925 5925 5922 5921 5918 5916 5915 5914 5911
5883 5884 5885 5886 5888 5889 5891 5893 5895 5897 5898 5900 5902 5904 5906 5907 5908 5907 5912 5912 5913 5914 5916 5917 5918 5920 5921 5923 5922 5922 5924 5927 5927 5927 5925 5925 5925 5925 5924 5922 5921 5918 5914 5910 5908
5879 5880 5881 5883 5884 5885 5887 5888 5891 5893 5895 5897 5899 5901 5903 5903 5905 5907 5909 5909 5910 5913 5915 5915 5917 5920 5921 5922 5922 5923 5923 5925 5927 5927 5927 5926 5926 5927 5925 5924 5922 5920 5914 5912 5910
5874 5875 5876 5878 5880 5881 5883 5884 5886 5889 5891 5893 5895 5898 5899 5900 5903 5905 5906 5907 5911 5913 5915 5915 5916 5918 5921 5922 5922 5922 5923 5924 5927 5927 5927 5926 5927 5926 5925 5924 5922 5919 5916 5913 5910
5870 5870 5871 5873 5875 5877 5878 5880 5882 5885 5887 5889 5892 5892 5893 5900 5901 5901 5903 5905 5906 5910 5913 5914 5915 5918 5921 5922 5924 5923 5925 5926 5927 5927 5927 5928 5927 5925 5926 5925 5923 5918 5915 5914 5910
5866 5867 5867 5868 5869 5871 5874 5875 5878 5881 5883 5886 5888 5888 5892 5895 5893 5895 5900 5902 5903 5907 5910 5913 5917 5918 5920 5923 5923 5924 5926 5927 5928 5928 5928 5929 5926 5926 5924 5922 5921 5917 5914 5911 5910
5862 5862 5863 5863 5864 5866 5868 5871 5873 5876 5879 5881 5883 5886 5890 5892 5891 5894 5896 5899 5901 5903 5908 5913 5916 5918 5920 5922 5922 5924 5925 5926 5926 5929 5928 5929 5927 5925 5923 5921 5919 5916 5914 5910 5908
5857 5858 5859 5859 5860 5861 5863 5866 5871 5873 5874 5876 5879 5881 5885 5888 5888 5890 5892 5895 5898 5902 5906 5911 5914 5917 5922 5922 5922 5923 5925 5926 5926 5927 5928 5928 5927 5926 5924 5922 5918 5915 5912 5911 5910
5852 5853 5854 5855 5856 5856 5858 5861 5864 5868 5871 5873 5875 5877 5879 5882 5885 5885 5890 5893 5896 5899 5904 5910 5914 5917 5919 5920 5921 5923 5924 5925 5925 5926 5927 5926 5927 5926 5924 5921 5920 5917 5913 5909 5910
5847 5848 5850 5851 5852 5853 5854 5858 5860 5863 5866 5869 5870 5873 5877 5878 5881 5883 5887 5891 5893 5897 5903 5908 5911 5911 5915 5919 5921 5922 5923 5923 5924 5925 5925 5926 5925 5924 5924 5921 5920 5920 5918 5915 5915
5842 5844 5845 5846 5849 5849 5851 5854 5857 5859 5861 5866 5866 5869 5873 5874 5877 5880 5883 5887 5891 5896 5901 5905 5908 5912 5915 5917 5920 5920 5921 5923 5924 5925 5924 5925 5925 5924 5923 5921 5920 5920 5920 5916 5914
5837 5839 5840 5842 5844 5845 5847 5849 5852 5854 5858 5861 5862 5865 5868 5871 5872 5876 5879 5883 5889 5894 5899 5904 5907 5909 5911 5915 5916 5918 5918 5922 5922 5923 5923 5924 5923 5923 5921 5921 5919 5918 5917 5918 5915
5833 5834 5835 5837 5839 5842 5843 5845 5849 5853 5854 5857 5858 5861 5864 5867 5870 5871 5875 5880 5885 5889 5895 5898 5901 5906 5911 5912 5914 5916 5916 5920 5921 5922 5921 5921 5922 5921 5921 5920 5919 5917 5916 5917 5917
5828 5829 5830 5833 5836 5837 5840 5843 5847 5848 5852 5854 5855 5858 5860 5862 5866 5869 5872 5875 5881 5885 5891 5897 5901 5906 5908 5912 5914 5915 5916 5918 5921 5921 5920 5920 5920 5920 5918 5917 5916 5916 5916 5914 5914
5823 5823 5825 5829 5831 5834 5837 5841 5844 5846 5847 5849 5851 5855 5857 5860 5863 5866 5869 5872 5879 5885 5891 5895 5902 5906 5911 5911 5912 5913 5914 5915 5918 5918 5917 5918 5918 5917 5914 5913 5912 5912 5912 5913 5912
5817 5819 5822 5825 5828 5831 5835 5838 5840 5843 5845 5847 5848 5852 5856 5858 5862 5865 5870 5875 5879 5885 5889 5895 5901 5906 5907 5908 5910 5910 5910 5913 5914 5915 5915 5916 5917 5916 5913 5910 5905 5907 5910 5911 5910
5813 5816 5819 5821 5824 5828 5832 5836 5837 5840 5843 5845 5847 5851 5855 5859 5863 5865 5869 5874 5878 5883 5889 5897 5902 5905 5906 5906 5907 5906 5909 5911 5912 5911 5911 5912 5913 5912 5910 5908 5908 5910 5909 5909 5908
5809 5812 5814 5817 5819 5823 5828 5833 5835 5838 5842 5844 5847 5851 5855 5860 5866 5869 5871 5874 5877 5881 5888 5895 5899 5903 5903 5905 5905 5905 5906 5908 5909 5908 5908 5908 5910 5909 5906 5907 5907 5910 5908 5907 5906
5805 5808 5809 5811 5815 5818 5822 5824 5830 5836 5840 5844 5847 5851 5855 5859 5864 5868 5871 5874 5880 5883 5887 5894 5896 5898 5901 5902 5902 5904 5905 5906 5906 5907 5906 5908 5910 5907 5905 5904 5905 5910 5908 5907 5904
5800 5802 5804 5806 5810 5814 5820 5823 5828 5833 5838 5842 5845 5847 5851 5856 5861 5865 5870 5872 5876 5883 5887 5891 5895 5896 5898 5899 5900 5900 5901 5902 5903 5904 5905 5905 5907 5908 5906 5905 5906 5906 5906 5903 5900
5794 5797 5800 5802 5806 5810 5816 5816 5825 5829 5834 5838 5844 5847 5851 5853 5859 5863 5867 5872 5875 5881 5887 5889 5892 5895 5897 5898 5898 5898 5897 5898 5900 5901 5902 5902 5902 5903 5904 5906 5903 5902 5900 5898 5896
5789 5793 5796 5800 5803 5807 5812 5816 5819 5819 5831 5835 5840 5844 5848 5853 5858 5861 5865 5869 5873 5878 5882 5885 5889 5892 5894 5895 5895 5896 5896 5896 5896 5896 5896 5898 5899 5900 5899 5900 5898 5896 5894 5893 5890
5784 5788 5791 5794 5799 5803 5809 5813 5816 5820 5827 5831 5838 5843 5847 5850 5856 5859 5863 5866 5869 5874 5878 5882 5884 5888 5889 5889 5891 5892 5893 5893 5891 5890 5893 5892 5895 5894 5895 5894 5894 5892 5890 5887 5884
5778 5782 5786 5790 5794 5799 5805 5811 5811 5823 5821 5830 5835 5841 5845 5850 5852 5856 5860 5863 5867 5871 5875 5879 5881 5883 5884 5884 5886 5888 5888 5888 5889 5887 5887 5888 5890 5889 5889 5890 5889 5885 5884 5882 5879